WXM80 ListenWXM80 Stop

You find our weather info also at:

UK Metoffice

WeatherCloud

Weather Underground

Northeastern Weather Network

AWEKAS

Citizen Weather Observer Program (CWOP)

HAMweather, WeatherForYou, PWS Weather


Weather Underground History page Text

Daily Summary for April 16, 2016 Units:  English    Metric   Both
« Previous Day
Next Day »
Daily Weekly Monthly Yearly Custom
  High: Low: Average:
Temperature: 62.6 °F 36.3 °F 49.4 °F
Dew Point: 39.9 °F 24.7 °F 32.7 °F
Humidity: 92 % 24 % 58 %
Wind Speed: 9.0 mph 0.0 mph 3 mph
Wind Gust: 11.5 mph - -
Wind:- - ESE
Pressure: 30.46 in 30.36 in -
Precipitation: 0.00 in    
Historical Graphs
 
 
Tabular Data for April 16, 2016
Time Temperature Dew Point Pressure Wind Wind Speed Wind Gust Humidity Rainfall Rate (Hourly)
00:01 41.2 °F 32.5 °F 30.40 in Calm     71 % 0.00 in
00:06 40.9 °F 32.2 °F 30.40 in Calm     71 % 0.00 in
00:11 40.8 °F 32.5 °F 30.41 in Calm     72 % 0.00 in
00:16 40.6 °F 32.3 °F 30.41 in Calm     72 % 0.00 in
00:21 40.4 °F 32.1 °F 30.41 in Calm     72 % 0.00 in
00:26 40.3 °F 32.0 °F 30.40 in Calm     72 % 0.00 in
00:31 40.1 °F 32.1 °F 30.41 in Calm     73 % 0.00 in
00:37 40.0 °F 32.0 °F 30.41 in Calm     73 % 0.00 in
00:42 39.8 °F 32.2 °F 30.41 in West 0.5 mph 1.2 mph 74 % 0.00 in
00:47 39.7 °F 32.1 °F 30.41 in West 0.4 mph 1.2 mph 74 % 0.00 in
00:52 39.6 °F 32.0 °F 30.41 in Calm     74 % 0.00 in
00:57 39.5 °F 31.9 °F 30.41 in Calm     74 % 0.00 in
01:02 39.4 °F 32.1 °F 30.41 in Calm     75 % 0.00 in
01:07 39.2 °F 31.9 °F 30.40 in Calm     75 % 0.00 in
01:12 39.1 °F 31.8 °F 30.40 in Calm   1.0 mph 75 % 0.00 in
01:17 38.9 °F 32.0 °F 30.40 in West 0.1 mph 1.2 mph 76 % 0.00 in
01:22 38.8 °F 31.9 °F 30.40 in West 0.8 mph 2.3 mph 76 % 0.00 in
01:28 38.6 °F 32.0 °F 30.40 in West 0.8 mph 2.3 mph 77 % 0.00 in
01:33 38.4 °F 31.8 °F 30.40 in West 0.9 mph 2.3 mph 77 % 0.00 in
01:38 38.3 °F 31.7 °F 30.40 in Calm     77 % 0.00 in
01:43 38.2 °F 31.6 °F 30.40 in Calm     77 % 0.00 in
01:48 38.1 °F 31.8 °F 30.40 in Calm     78 % 0.00 in
01:53 38.0 °F 32.1 °F 30.40 in Calm     79 % 0.00 in
01:58 37.8 °F 31.9 °F 30.40 in Calm     79 % 0.00 in
02:03 37.7 °F 31.8 °F 30.40 in Calm     79 % 0.00 in
02:08 37.5 °F 31.6 °F 30.40 in Calm     79 % 0.00 in
02:13 37.4 °F 31.8 °F 30.40 in Calm     80 % 0.00 in
02:19 37.3 °F 31.7 °F 30.40 in Calm     80 % 0.00 in
02:24 37.2 °F 31.6 °F 30.41 in Calm     80 % 0.00 in
02:29 37.2 °F 31.9 °F 30.41 in Calm     81 % 0.00 in
02:34 37.2 °F 31.9 °F 30.41 in Calm     81 % 0.00 in
02:39 37.2 °F 31.9 °F 30.41 in Calm     81 % 0.00 in
02:44 37.2 °F 31.9 °F 30.40 in Calm     81 % 0.00 in
02:49 37.3 °F 32.3 °F 30.40 in Calm     82 % 0.00 in
02:55 37.3 °F 32.3 °F 30.40 in Calm     82 % 0.00 in
03:00 37.5 °F 32.8 °F 30.40 in Calm     83 % 0.00 in
03:05 37.5 °F 32.8 °F 30.40 in Calm     83 % 0.00 in
03:10 37.7 °F 33.3 °F 30.40 in Calm   1.2 mph 84 % 0.00 in
03:15 37.8 °F 33.7 °F 30.40 in Calm     85 % 0.00 in
03:20 37.9 °F 33.8 °F 30.40 in Calm     85 % 0.00 in
03:25 38.0 °F 33.9 °F 30.40 in Calm     85 % 0.00 in
03:30 38.1 °F 34.3 °F 30.40 in Calm     86 % 0.00 in
03:35 38.1 °F 34.0 °F 30.40 in Calm   1.2 mph 85 % 0.00 in
03:40 38.1 °F 34.0 °F 30.39 in West 0.3 mph 1.2 mph 85 % 0.00 in
03:46 38.1 °F 34.0 °F 30.40 in Calm   1.2 mph 85 % 0.00 in
03:51 38.0 °F 33.9 °F 30.40 in Calm     85 % 0.00 in
03:56 38.0 °F 33.9 °F 30.40 in Calm     85 % 0.00 in
04:01 38.0 °F 33.9 °F 30.40 in Calm     85 % 0.00 in
04:06 37.9 °F 33.8 °F 30.40 in West 0.8 mph 1.2 mph 85 % 0.00 in
04:16 37.7 °F 33.6 °F 30.40 in West 1.6 mph 2.3 mph 85 % 0.00 in
04:26 37.6 °F 33.5 °F 30.41 in Calm     85 % 0.00 in
04:31 37.5 °F 33.4 °F 30.41 in Calm     85 % 0.00 in
04:37 37.4 °F 33.3 °F 30.41 in Calm     85 % 0.00 in
04:42 37.3 °F 33.5 °F 30.41 in Calm     86 % 0.00 in
04:47 37.2 °F 33.4 °F 30.41 in Calm   1.2 mph 86 % 0.00 in
04:52 37.2 °F 33.7 °F 30.40 in Calm     87 % 0.00 in
04:57 37.2 °F 33.7 °F 30.41 in West 0.1 mph 1.2 mph 87 % 0.00 in
05:02 37.2 °F 33.7 °F 30.41 in Calm     87 % 0.00 in
05:07 37.1 °F 33.6 °F 30.41 in Calm     87 % 0.00 in
05:12 37.1 °F 33.6 °F 30.41 in Calm     87 % 0.00 in
05:17 37.1 °F 33.6 °F 30.41 in Calm     87 % 0.00 in
05:22 37.0 °F 33.5 °F 30.41 in Calm     87 % 0.00 in
05:27 36.9 °F 33.4 °F 30.42 in Calm     87 % 0.00 in
05:33 36.8 °F 33.0 °F 30.42 in Calm     86 % 0.00 in
05:38 36.6 °F 32.8 °F 30.42 in Calm     86 % 0.00 in
05:43 36.5 °F 33.0 °F 30.42 in Calm     87 % 0.00 in
05:48 36.4 °F 33.2 °F 30.42 in West 0.1 mph 1.2 mph 88 % 0.00 in
05:53 36.3 °F 33.4 °F 30.42 in Calm     89 % 0.00 in
05:58 36.4 °F 33.5 °F 30.42 in Calm     89 % 0.00 in
06:03 36.4 °F 33.7 °F 30.42 in West 0.3 mph 1.0 mph 90 % 0.00 in
06:08 36.5 °F 33.8 °F 30.42 in West 1.2 mph 2.3 mph 90 % 0.00 in
06:13 36.5 °F 33.8 °F 30.42 in West 0.7 mph 1.0 mph 90 % 0.00 in
06:18 36.5 °F 33.8 °F 30.42 in West 0.1 mph 1.2 mph 90 % 0.00 in
06:24 36.5 °F 33.8 °F 30.42 in West 0.7 mph 2.0 mph 90 % 0.00 in
06:29 36.8 °F 34.4 °F 30.42 in Calm   1.2 mph 91 % 0.00 in
06:34 36.9 °F 34.8 °F 30.42 in Calm     92 % 0.00 in
06:39 37.1 °F 35.0 °F 30.43 in West 0.4 mph 1.2 mph 92 % 0.00 in
06:44 37.4 °F 35.3 °F 30.43 in West 0.4 mph 2.3 mph 92 % 0.00 in
06:49 37.7 °F 35.6 °F 30.43 in NE 0.2 mph 2.3 mph 92 % 0.00 in
06:54 38.2 °F 36.1 °F 30.43 in NE 0.3 mph 1.2 mph 92 % 0.00 in
06:59 38.7 °F 36.6 °F 30.43 in East 4.1 mph 6.9 mph 92 % 0.00 in
07:04 40.2 °F 36.9 °F 30.43 in ENE 4.1 mph 6.9 mph 88 % 0.00 in
07:09 41.9 °F 36.2 °F 30.44 in ENE 5.3 mph 8.1 mph 80 % 0.00 in
07:15 43.2 °F 35.5 °F 30.44 in ENE 5.2 mph 10.4 mph 74 % 0.00 in
07:20 44.3 °F 35.8 °F 30.44 in ENE 2.8 mph 6.9 mph 72 % 0.00 in
07:25 45.0 °F 36.2 °F 30.44 in NE 3.0 mph 4.6 mph 71 % 0.00 in
07:30 45.5 °F 35.9 °F 30.44 in NNE 3.2 mph 3.5 mph 69 % 0.00 in
07:35 45.9 °F 36.7 °F 30.44 in ENE 3.7 mph 4.6 mph 70 % 0.00 in
07:40 46.3 °F 37.0 °F 30.45 in NE 3.6 mph 8.1 mph 70 % 0.00 in
07:45 46.7 °F 37.4 °F 30.45 in NNE 4.0 mph 6.9 mph 70 % 0.00 in
07:50 47.1 °F 37.4 °F 30.45 in North 7.7 mph 10.4 mph 69 % 0.00 in
07:55 47.3 °F 36.1 °F 30.45 in North 6.6 mph 9.2 mph 65 % 0.00 in
08:00 47.4 °F 35.8 °F 30.45 in NNE 5.1 mph 7.0 mph 64 % 0.00 in
08:06 47.6 °F 35.6 °F 30.44 in NE 4.7 mph 7.0 mph 63 % 0.00 in
08:11 47.8 °F 36.6 °F 30.45 in NE 6.8 mph 11.5 mph 65 % 0.00 in
08:16 47.9 °F 35.1 °F 30.44 in NNE 4.3 mph 7.0 mph 61 % 0.00 in
08:21 48.1 °F 34.4 °F 30.45 in NNE 3.6 mph 6.0 mph 59 % 0.00 in
08:26 48.5 °F 34.8 °F 30.44 in NNE 3.5 mph 4.6 mph 59 % 0.00 in
08:31 48.8 °F 33.8 °F 30.45 in NNE 6.3 mph 10.4 mph 56 % 0.00 in
08:36 49.0 °F 33.5 °F 30.45 in NE 4.6 mph 9.2 mph 55 % 0.00 in
08:41 49.4 °F 35.2 °F 30.45 in NE 5.1 mph 8.1 mph 58 % 0.00 in
08:46 49.9 °F 35.3 °F 30.45 in East 5.5 mph 6.9 mph 57 % 0.00 in
08:51 50.2 °F 34.2 °F 30.45 in NNE 5.3 mph 6.9 mph 54 % 0.00 in
08:57 50.6 °F 34.6 °F 30.45 in North 6.6 mph 10.4 mph 54 % 0.00 in
09:02 51.0 °F 34.0 °F 30.45 in NE 4.5 mph 9.2 mph 52 % 0.00 in
09:07 51.5 °F 33.5 °F 30.45 in NNE 4.5 mph 6.9 mph 50 % 0.00 in
09:12 51.8 °F 32.7 °F 30.46 in NE 4.0 mph 5.8 mph 48 % 0.00 in
09:17 52.2 °F 33.1 °F 30.45 in North 4.4 mph 5.8 mph 48 % 0.00 in
09:22 52.7 °F 33.0 °F 30.45 in North 4.3 mph 6.9 mph 47 % 0.00 in
09:27 53.0 °F 32.2 °F 30.45 in North 5.4 mph 9.2 mph 45 % 0.00 in
09:32 53.5 °F 32.7 °F 30.45 in NE 4.7 mph 10.4 mph 45 % 0.00 in
09:37 53.7 °F 33.9 °F 30.45 in East 4.6 mph 9.2 mph 47 % 0.00 in
09:42 53.9 °F 33.6 °F 30.45 in NNE 3.6 mph 5.0 mph 46 % 0.00 in
09:48 54.3 °F 35.5 °F 30.45 in NE 2.5 mph 5.0 mph 49 % 0.00 in
09:53 54.7 °F 34.8 °F 30.45 in ENE 3.6 mph 5.8 mph 47 % 0.00 in
09:58 54.6 °F 32.5 °F 30.45 in NNE 4.6 mph 10.4 mph 43 % 0.00 in
10:03 54.1 °F 32.6 °F 30.45 in NE 5.1 mph 8.1 mph 44 % 0.00 in
10:08 53.7 °F 31.7 °F 30.45 in ENE 6.3 mph 9.2 mph 43 % 0.00 in
10:13 53.2 °F 30.7 °F 30.44 in ENE 4.0 mph 8.1 mph 42 % 0.00 in
10:18 52.9 °F 30.4 °F 30.44 in ENE 7.2 mph 11.5 mph 42 % 0.00 in
10:23 52.5 °F 31.8 °F 30.44 in ENE 5.2 mph 9.2 mph 45 % 0.00 in
10:28 52.6 °F 31.8 °F 30.44 in ENE 4.0 mph 8.1 mph 45 % 0.00 in
10:33 52.8 °F 32.0 °F 30.44 in ENE 6.5 mph 9.0 mph 45 % 0.00 in
10:39 52.8 °F 32.0 °F 30.44 in ENE 6.7 mph 6.9 mph 45 % 0.00 in
10:44 52.6 °F 32.9 °F 30.44 in ENE 5.1 mph 8.1 mph 47 % 0.00 in
10:49 52.6 °F 31.8 °F 30.44 in ENE 7.1 mph 10.4 mph 45 % 0.00 in
10:54 52.8 °F 33.1 °F 30.44 in East 5.6 mph 6.9 mph 47 % 0.00 in
10:59 53.1 °F 31.7 °F 30.44 in East 6.2 mph 8.1 mph 44 % 0.00 in
11:04 53.5 °F 32.7 °F 30.44 in East 5.4 mph 7.0 mph 45 % 0.00 in
11:09 54.0 °F 32.6 °F 30.43 in ENE 4.3 mph 8.1 mph 44 % 0.00 in
11:14 53.9 °F 31.9 °F 30.43 in ENE 4.0 mph 6.9 mph 43 % 0.00 in
11:19 54.0 °F 30.8 °F 30.43 in East 2.8 mph 6.9 mph 41 % 0.00 in
11:24 54.2 °F 29.8 °F 30.43 in NE 6.4 mph 10.0 mph 39 % 0.00 in
11:29 54.2 °F 29.1 °F 30.43 in East 5.2 mph 9.2 mph 38 % 0.00 in
11:35 54.5 °F 30.6 °F 30.43 in ENE 4.5 mph 6.9 mph 40 % 0.00 in
11:40 54.7 °F 30.8 °F 30.43 in ENE 4.3 mph 8.1 mph 40 % 0.00 in
11:45 54.8 °F 31.5 °F 30.43 in ENE 4.0 mph 8.1 mph 41 % 0.00 in
11:50 55.3 °F 31.4 °F 30.42 in NE 6.0 mph 10.4 mph 40 % 0.00 in
11:55 55.0 °F 31.1 °F 30.42 in East 5.7 mph 8.1 mph 40 % 0.00 in
12:00 55.0 °F 34.0 °F 30.42 in ENE 5.2 mph 6.9 mph 45 % 0.00 in
12:05 55.1 °F 31.2 °F 30.42 in ENE 6.5 mph 9.2 mph 40 % 0.00 in
12:10 55.4 °F 30.2 °F 30.42 in East 6.8 mph 11.5 mph 38 % 0.00 in
12:20 55.8 °F 31.2 °F 30.42 in East 5.1 mph 9.2 mph 39 % 0.00 in
12:26 56.2 °F 30.2 °F 30.41 in East 7.6 mph 10.4 mph 37 % 0.00 in
12:31 56.5 °F 31.8 °F 30.41 in ENE 7.9 mph 11.5 mph 39 % 0.00 in
12:36 56.6 °F 31.9 °F 30.41 in NE 7.2 mph 10.4 mph 39 % 0.00 in
12:46 57.0 °F 32.3 °F 30.41 in ENE 6.9 mph 9.2 mph 39 % 0.00 in
12:51 57.5 °F 32.1 °F 30.41 in East 6.6 mph 8.1 mph 38 % 0.00 in
12:56 57.6 °F 32.8 °F 30.41 in East 6.3 mph 7.0 mph 39 % 0.00 in
13:02 57.9 °F 33.1 °F 30.41 in East 9.0 mph 9.2 mph 39 % 0.00 in
13:07 58.1 °F 31.9 °F 30.41 in ENE 7.1 mph 8.1 mph 37 % 0.00 in
13:12 57.9 °F 33.1 °F 30.41 in ENE 5.5 mph 6.9 mph 39 % 0.00 in
13:17 58.2 °F 32.7 °F 30.41 in East 6.7 mph 9.0 mph 38 % 0.00 in
13:22 58.4 °F 30.8 °F 30.40 in East 5.9 mph 10.4 mph 35 % 0.00 in
13:28 58.6 °F 31.7 °F 30.40 in East 6.6 mph 10.0 mph 36 % 0.00 in
13:33 58.8 °F 32.6 °F 30.40 in ENE 7.4 mph 9.2 mph 37 % 0.00 in
13:38 58.8 °F 30.5 °F 30.40 in ENE 5.4 mph 8.1 mph 34 % 0.00 in
13:43 58.7 °F 31.1 °F 30.40 in East 6.1 mph 8.1 mph 35 % 0.00 in
13:48 58.8 °F 31.2 °F 30.40 in ENE 4.6 mph 6.9 mph 35 % 0.00 in
13:53 59.3 °F 30.9 °F 30.40 in East 6.1 mph 8.1 mph 34 % 0.00 in
13:58 59.3 °F 30.2 °F 30.40 in ENE 6.0 mph 8.1 mph 33 % 0.00 in
14:03 59.3 °F 28.6 °F 30.40 in East 7.6 mph 11.5 mph 31 % 0.00 in
14:08 59.5 °F 28.8 °F 30.39 in ENE 6.9 mph 8.1 mph 31 % 0.00 in
14:13 59.8 °F 28.3 °F 30.39 in ENE 6.5 mph 9.2 mph 30 % 0.00 in
14:19 60.3 °F 29.5 °F 30.39 in ENE 5.7 mph 9.2 mph 31 % 0.00 in
14:24 60.5 °F 28.9 °F 30.39 in East 6.6 mph 8.1 mph 30 % 0.00 in
14:29 60.8 °F 29.1 °F 30.39 in East 7.9 mph 11.5 mph 30 % 0.00 in
14:34 60.9 °F 28.4 °F 30.39 in ENE 6.9 mph 9.2 mph 29 % 0.00 in
14:39 61.1 °F 28.6 °F 30.39 in East 6.3 mph 9.2 mph 29 % 0.00 in
14:44 61.4 °F 28.8 °F 30.39 in NE 4.9 mph 6.9 mph 29 % 0.00 in
14:49 61.8 °F 27.4 °F 30.39 in ENE 5.1 mph 8.0 mph 27 % 0.00 in
14:54 62.1 °F 29.4 °F 30.38 in ENE 7.8 mph 9.2 mph 29 % 0.00 in
14:59 62.1 °F 26.8 °F 30.38 in East 5.9 mph 8.1 mph 26 % 0.00 in
15:04 61.9 °F 26.6 °F 30.38 in ENE 6.2 mph 6.9 mph 26 % 0.00 in
15:10 61.9 °F 28.4 °F 30.38 in East 6.1 mph 8.1 mph 28 % 0.00 in
15:15 62.1 °F 25.8 °F 30.37 in ENE 7.0 mph 11.5 mph 25 % 0.00 in
15:20 62.2 °F 27.8 °F 30.38 in ESE 5.8 mph 10.4 mph 27 % 0.00 in
15:25 62.1 °F 24.8 °F 30.37 in ENE 6.1 mph 9.2 mph 24 % 0.00 in
15:30 62.1 °F 24.8 °F 30.37 in East 5.8 mph 9.2 mph 24 % 0.00 in
15:35 62.2 °F 27.8 °F 30.37 in ENE 7.3 mph 9.2 mph 27 % 0.00 in
15:40 62.3 °F 27.9 °F 30.37 in ENE 5.3 mph 8.1 mph 27 % 0.00 in
15:45 62.3 °F 26.0 °F 30.37 in ENE 5.2 mph 8.1 mph 25 % 0.00 in
15:50 62.4 °F 27.0 °F 30.37 in East 5.8 mph 9.2 mph 26 % 0.00 in
16:01 62.5 °F 26.2 °F 30.37 in ENE 6.8 mph 9.2 mph 25 % 0.00 in
16:06 62.6 °F 26.2 °F 30.36 in ENE 6.4 mph 9.2 mph 25 % 0.00 in
16:11 62.5 °F 26.2 °F 30.37 in East 7.7 mph 11.5 mph 25 % 0.00 in
16:16 62.2 °F 26.9 °F 30.36 in East 5.8 mph 8.1 mph 26 % 0.00 in
16:21 62.0 °F 28.5 °F 30.36 in ENE 6.3 mph 10.4 mph 28 % 0.00 in
16:26 62.2 °F 26.9 °F 30.36 in East 6.6 mph 9.2 mph 26 % 0.00 in
16:31 62.3 °F 26.9 °F 30.36 in East 6.6 mph 9.2 mph 26 % 0.00 in
16:36 62.5 °F 27.1 °F 30.37 in East 6.7 mph 8.1 mph 26 % 0.00 in
16:41 62.5 °F 27.1 °F 30.36 in ENE 4.8 mph 9.2 mph 26 % 0.00 in
16:52 62.5 °F 26.2 °F 30.36 in East 8.0 mph 10.4 mph 25 % 0.00 in
16:57 62.5 °F 27.1 °F 30.36 in East 6.3 mph 10.4 mph 26 % 0.00 in
17:02 62.5 °F 25.2 °F 30.36 in East 7.1 mph 9.2 mph 24 % 0.00 in
17:07 62.5 °F 26.2 °F 30.36 in East 5.6 mph 9.2 mph 25 % 0.00 in
17:12 62.5 °F 25.2 °F 30.36 in East 5.8 mph 8.1 mph 24 % 0.00 in
17:17 62.6 °F 26.2 °F 30.36 in ENE 4.3 mph 7.0 mph 25 % 0.00 in
17:22 62.5 °F 25.2 °F 30.36 in ENE 4.6 mph 8.1 mph 24 % 0.00 in
17:27 62.4 °F 25.1 °F 30.36 in East 4.2 mph 9.2 mph 24 % 0.00 in
17:32 62.2 °F 25.9 °F 30.36 in East 4.6 mph 5.8 mph 25 % 0.00 in
17:37 62.0 °F 24.8 °F 30.36 in ENE 5.1 mph 9.2 mph 24 % 0.00 in
17:43 61.9 °F 24.7 °F 30.36 in East 7.5 mph 8.1 mph 24 % 0.00 in
17:48 61.9 °F 25.7 °F 30.36 in East 6.2 mph 8.1 mph 25 % 0.00 in
17:53 61.7 °F 27.3 °F 30.36 in East 6.2 mph 8.1 mph 27 % 0.00 in
17:58 61.5 °F 26.3 °F 30.36 in ESE 5.6 mph 6.9 mph 26 % 0.00 in
18:03 61.3 °F 26.1 °F 30.36 in East 6.4 mph 7.0 mph 26 % 0.00 in
18:08 61.1 °F 25.9 °F 30.36 in East 3.3 mph 5.8 mph 26 % 0.00 in
18:13 60.9 °F 25.7 °F 30.36 in East 5.8 mph 6.9 mph 26 % 0.00 in
18:18 60.9 °F 26.7 °F 30.37 in East 3.7 mph 6.9 mph 27 % 0.00 in
18:23 60.7 °F 25.6 °F 30.36 in ENE 5.1 mph 6.9 mph 26 % 0.00 in
18:28 60.6 °F 26.4 °F 30.37 in East 3.9 mph 6.0 mph 27 % 0.00 in
18:34 60.4 °F 26.2 °F 30.37 in East 5.5 mph 7.0 mph 27 % 0.00 in
18:39 60.2 °F 26.1 °F 30.37 in East 4.5 mph 6.0 mph 27 % 0.00 in
18:49 59.7 °F 26.5 °F 30.37 in East 2.2 mph 3.5 mph 28 % 0.00 in
18:54 59.6 °F 25.5 °F 30.37 in East 3.0 mph 4.6 mph 27 % 0.00 in
19:04 59.1 °F 26.0 °F 30.37 in East 2.6 mph 3.5 mph 28 % 0.00 in
19:09 58.9 °F 24.9 °F 30.37 in East 2.3 mph 3.5 mph 27 % 0.00 in
19:19 58.4 °F 25.4 °F 30.37 in East 3.1 mph 4.6 mph 28 % 0.00 in
19:25 58.1 °F 26.8 °F 30.37 in East 2.0 mph 3.5 mph 30 % 0.00 in
19:30 57.9 °F 26.6 °F 30.37 in Calm   1.2 mph 30 % 0.00 in
19:35 57.5 °F 31.4 °F 30.38 in SSE 3.3 mph 9.0 mph 37 % 0.00 in
19:40 56.6 °F 37.1 °F 30.38 in SSE 2.2 mph 5.8 mph 48 % 0.00 in
19:50 55.1 °F 38.7 °F 30.38 in SSE 3.8 mph 5.8 mph 54 % 0.00 in
19:55 54.4 °F 39.0 °F 30.38 in SSE 1.7 mph 3.5 mph 56 % 0.00 in
20:00 53.8 °F 39.4 °F 30.39 in SSW 2.5 mph 6.9 mph 58 % 0.00 in
20:05 53.4 °F 39.4 °F 30.39 in SSE 1.4 mph 4.6 mph 59 % 0.00 in
20:10 53.0 °F 39.0 °F 30.39 in South 1.9 mph 3.5 mph 59 % 0.00 in
20:16 52.7 °F 39.2 °F 30.39 in SSW 0.5 mph 3.5 mph 60 % 0.00 in
20:21 52.4 °F 39.3 °F 30.39 in SSE 1.4 mph 3.5 mph 61 % 0.00 in
20:26 52.0 °F 39.4 °F 30.39 in SSE 0.9 mph 2.3 mph 62 % 0.00 in
20:31 51.7 °F 39.9 °F 30.40 in SSE 1.4 mph 3.5 mph 64 % 0.00 in
20:36 51.3 °F 39.5 °F 30.40 in SSW 0.5 mph 3.5 mph 64 % 0.00 in
20:41 51.0 °F 39.6 °F 30.40 in SSE 0.8 mph 2.3 mph 65 % 0.00 in
20:46 50.6 °F 39.7 °F 30.40 in SSE 1.3 mph 5.0 mph 66 % 0.00 in
20:51 50.4 °F 39.9 °F 30.40 in SSE 0.3 mph 1.2 mph 67 % 0.00 in
20:56 50.3 °F 39.4 °F 30.40 in SSE 1.7 mph 2.3 mph 66 % 0.00 in
21:01 50.1 °F 39.2 °F 30.41 in SSE 0.1 mph 2.3 mph 66 % 0.00 in
21:07 50.0 °F 39.5 °F 30.41 in SSE 0.5 mph 2.3 mph 67 % 0.00 in
21:12 49.8 °F 39.7 °F 30.41 in SSE 0.9 mph 2.3 mph 68 % 0.00 in
21:17 49.6 °F 39.1 °F 30.42 in Calm     67 % 0.00 in
21:22 49.3 °F 39.6 °F 30.42 in SSE 0.3 mph 2.3 mph 69 % 0.00 in
21:27 49.0 °F 39.3 °F 30.41 in SW 0.7 mph 2.3 mph 69 % 0.00 in
21:32 48.8 °F 39.4 °F 30.42 in Calm   1.2 mph 70 % 0.00 in
21:37 48.6 °F 39.3 °F 30.42 in SW 0.1 mph 1.2 mph 70 % 0.00 in
21:42 48.4 °F 39.1 °F 30.42 in ESE 1.3 mph 3.5 mph 70 % 0.00 in
21:47 48.1 °F 38.8 °F 30.42 in Calm     70 % 0.00 in
21:53 47.9 °F 38.9 °F 30.42 in Calm     71 % 0.00 in
21:58 47.7 °F 39.1 °F 30.42 in ESE 0.7 mph 1.2 mph 72 % 0.00 in
22:03 47.5 °F 38.9 °F 30.43 in ESE 0.7 mph 1.2 mph 72 % 0.00 in
22:08 47.3 °F 38.7 °F 30.43 in Calm     72 % 0.00 in
22:13 47.1 °F 38.5 °F 30.43 in Calm     72 % 0.00 in
22:18 46.9 °F 38.7 °F 30.43 in ESE 0.1 mph 1.0 mph 73 % 0.00 in
22:23 46.7 °F 38.5 °F 30.43 in Calm     73 % 0.00 in
22:28 46.5 °F 38.7 °F 30.43 in Calm   1.2 mph 74 % 0.00 in
22:33 46.3 °F 38.8 °F 30.43 in Calm     75 % 0.00 in
22:38 46.1 °F 39.0 °F 30.43 in Calm   1.2 mph 76 % 0.00 in
22:44 45.9 °F 38.8 °F 30.43 in ESE 1.6 mph 2.3 mph 76 % 0.00 in
22:49 45.5 °F 39.0 °F 30.43 in Calm     78 % 0.00 in
22:54 45.3 °F 38.8 °F 30.43 in Calm   1.2 mph 78 % 0.00 in
22:59 45.1 °F 39.0 °F 30.43 in Calm     79 % 0.00 in
23:09 44.9 °F 39.1 °F 30.43 in Calm     80 % 0.00 in
23:14 44.7 °F 38.9 °F 30.43 in Calm     80 % 0.00 in
23:19 44.5 °F 38.7 °F 30.43 in ESE 0.7 mph 1.2 mph 80 % 0.00 in
23:24 44.3 °F 38.5 °F 30.43 in Calm     80 % 0.00 in
23:29 44.2 °F 38.7 °F 30.43 in ESE 0.6 mph 1.2 mph 81 % 0.00 in
23:35 44.0 °F 38.5 °F 30.43 in ESE 0.3 mph 1.0 mph 81 % 0.00 in
23:40 43.8 °F 38.7 °F 30.43 in Calm     82 % 0.00 in
23:45 43.7 °F 38.6 °F 30.43 in Calm     82 % 0.00 in
23:50 43.5 °F 38.4 °F 30.43 in ESE 0.9 mph 2.3 mph 82 % 0.00 in
23:55 43.3 °F 38.5 °F 30.43 in ESE 0.6 mph 2.3 mph 83 % 0.00 in
Crab Meadow Weather
Compliments of Weather Underground - 2.75 mb

Script developed by  Jim McMurry - jmcmurry@mwt.net Adapted for the template by  Wim van der Kuil - Leuven-Template.eu

Cloud Base: The cloud base is the distance from the sea level to the base of the clouds. It is estimated using the current temperature and humidity to indicate an altitude where the air could be cold enough for clouds to form. There may or may not be clouds at that altitude (or at any altitude)